Weather History for Logan, UT

Change the Weather History Date:

Sunday, December 9, 2012

  Actual Average Record
Temperature  
Mean Temperature 20 °F -  
Max Temperature 28 °F 35 °F 53 °F (1981)
Min Temperature 12 °F 16 °F -15 °F (1956)
Degree Days  
Heating Degree Days 45    
Moisture  
Dew Point 17 °F    
Average Humidity 83    
Maximum Humidity 100    
Minimum Humidity 51    
Precipitation  
Precipitation 0.05 in - - ()
Sea Level Pressure  
Sea Level Pressure 30.25 in    
Wind  
Wind Speed 2 mph (West)    
Max Wind Speed 8 mph    
Max Gust Speed -    
Visibility 6 miles    
Events Fog , Snow    
Averages and records for this station are not official NWS values.
T = Trace of Precipitation, MM = Missing Value Source: NWS Daily Summary

Daily Weather History Graph

Daily Weather History Graph

Search for Another Location

Airport:

Trip Planner

Search our weather history database for the weather conditions in past years. The results will help you decide how hot, cold, wet, or windy it might be!

Date:

Astronomy

Dec. 09, 2012 Rise Set
Actual Time 7:43 AM MST 4:56 PM MST
Civil Twilight 7:12 AM MST 5:27 PM MST
Nautical Twilight 6:37 AM MST 6:02 PM MST
Astronomical Twilight 6:03 AM MST 6:36 PM MST
Moon 3:17 AM MST (12/9) 2:08 PM MST (12/9)
Length of Visible Light 10h 15m
Length of Day
9h 13m
Waning Crescent, 18% of the Moon is Illuminated
Dec 9
Waning Crescent
Dec 13
New
Dec 19
First Quarter
Dec 28
Full
Jan 4
Last Quarter

Hourly Weather History & Observations

Time (MST) Temp. Windchill Dew Point Humidity Pressure Visibility Wind Dir Wind Speed Gust Speed Precip Events Conditions
12:51 AM 26.1 °F - 21.9 °F 84% 30.16 in 8.0 mi Calm Calm - 0.00 in Snow Light Snow
1:00 AM 26.6 °F 22.6 °F 21.2 °F 80% 30.09 in 2.5 mi South 3.5 mph - 0.00 in Snow Light Snow
1:06 AM 24.8 °F - 21.2 °F 86% 30.09 in 1.5 mi Calm Calm - 0.00 in Snow Light Snow
1:14 AM 24.8 °F - 21.2 °F 86% 30.10 in 3.0 mi Calm Calm - 0.00 in Snow Light Snow
1:29 AM 24.8 °F - 21.2 °F 86% 30.10 in 10.0 mi Calm Calm - 0.00 in   Overcast
1:51 AM 24.1 °F 18.2 °F 21.0 °F 88% 30.18 in 10.0 mi ESE 4.6 mph - 0.00 in   Overcast
2:51 AM 23.0 °F 18.4 °F 19.9 °F 88% 30.19 in 10.0 mi South 3.5 mph - N/A   Overcast
3:51 AM 23.0 °F 17.0 °F 17.1 °F 78% 30.18 in 10.0 mi South 4.6 mph - N/A   Mostly Cloudy
4:51 AM 21.9 °F 17.2 °F 17.1 °F 82% 30.20 in 2.0 mi South 3.5 mph - 0.00 in Snow Light Snow
4:55 AM 21.2 °F - 17.6 °F 86% 30.11 in 0.8 mi Calm Calm - 0.00 in Snow Light Snow
5:03 AM 21.2 °F - 19.4 °F 93% 30.12 in 0.5 mi Calm Calm - 0.02 in Fog , Snow Snow
5:07 AM 21.2 °F - 19.4 °F 93% 30.12 in 0.5 mi Calm Calm - 0.02 in Fog , Snow Snow
5:29 AM 21.2 °F 16.4 °F 19.4 °F 93% 30.12 in 1.0 mi NE 3.5 mph - 0.04 in Snow Light Snow
5:36 AM 21.2 °F - 19.4 °F 93% 30.13 in 2.0 mi Calm Calm - 0.04 in Snow Light Snow
5:51 AM 21.9 °F - 19.9 °F 92% 30.23 in 1.5 mi Calm Calm - 0.04 in Snow Light Snow
6:12 AM 21.2 °F - 19.4 °F 93% 30.14 in 1.2 mi Calm Calm - 0.01 in Snow Light Snow
6:26 AM 21.2 °F - 19.4 °F 93% 30.15 in 3.0 mi Calm Calm - 0.01 in Snow Light Snow
6:43 AM 19.4 °F - 19.4 °F 100% 30.15 in 10.0 mi Calm Calm - 0.01 in   Mostly Cloudy
6:51 AM 19.9 °F - 19.0 °F 96% 30.26 in 10.0 mi Calm Calm - 0.01 in   Mostly Cloudy
7:51 AM 16.0 °F - 14.0 °F 92% 30.28 in 10.0 mi Calm Calm - N/A   Partly Cloudy
8:06 AM 15.8 °F 8.6 °F 15.8 °F 100% 30.18 in 2.5 mi SW 4.6 mph - N/A   Partly Cloudy
8:08 AM 15.8 °F 10.2 °F 14.0 °F 93% 30.18 in 1.0 mi SW 3.5 mph - N/A   Mist
8:13 AM 12.2 °F - 10.4 °F 92% 30.18 in 0.2 mi Calm Calm - N/A Fog Light Freezing Fog
8:51 AM 17.1 °F 10.0 °F 15.1 °F 92% 30.32 in 0.2 mi North 4.6 mph - N/A Fog Light Freezing Fog
9:10 AM 19.4 °F 9.5 °F 17.6 °F 93% 30.22 in 2.0 mi North 8.1 mph - N/A   Overcast
9:15 AM 19.4 °F 10.4 °F 17.6 °F 93% 30.22 in 7.0 mi North 6.9 mph - N/A   Overcast
9:51 AM 21.9 °F 15.7 °F 19.9 °F 92% 30.34 in 5.0 mi North 4.6 mph - 0.00 in Snow Light Snow
10:24 AM 21.2 °F 13.6 °F 19.4 °F 93% 30.26 in 10.0 mi NW 5.8 mph - 0.00 in   Overcast
10:51 AM 21.9 °F 17.2 °F 19.9 °F 92% 30.38 in 10.0 mi Variable 3.5 mph - 0.00 in   Overcast
11:08 AM 21.2 °F 12.6 °F 15.8 °F 80% 30.28 in 10.0 mi NNW 6.9 mph - N/A   Overcast
11:23 AM 23.0 °F 18.4 °F 17.6 °F 80% 30.28 in 10.0 mi North 3.5 mph - N/A   Scattered Clouds
11:51 AM 25.0 °F 20.7 °F 16.0 °F 69% 30.37 in 10.0 mi North 3.5 mph - N/A   Clear
12:51 PM 25.0 °F - 14.0 °F 63% 30.34 in 10.0 mi Calm Calm - N/A   Clear
1:14 PM 24.8 °F 19.1 °F 15.8 °F 69% 30.26 in 10.0 mi WSW 4.6 mph - N/A   Mostly Cloudy
1:51 PM 26.1 °F - 16.0 °F 66% 30.36 in 10.0 mi Calm Calm - N/A   Mostly Cloudy
2:19 PM 28.4 °F - 12.2 °F 51% 30.26 in 10.0 mi Calm Calm - N/A   Scattered Clouds
2:51 PM 28.0 °F 20.0 °F 15.1 °F 58% 30.35 in 9.0 mi North 8.1 mph - 0.00 in Snow Light Snow
3:51 PM 27.0 °F 21.6 °F 12.9 °F 56% 30.38 in 10.0 mi WSW 4.6 mph - 0.00 in   Clear
4:51 PM 24.1 °F 17.0 °F 15.1 °F 69% 30.40 in 10.0 mi SW 5.8 mph - N/A   Partly Cloudy
5:51 PM 21.9 °F 13.4 °F 15.1 °F 75% 30.40 in 10.0 mi South 6.9 mph - N/A   Clear
6:51 PM 21.9 °F - 15.1 °F 75% 30.44 in 10.0 mi Calm Calm - N/A   Clear
7:51 PM 21.0 °F - 15.1 °F 78% 30.44 in 10.0 mi Calm Calm - N/A   Scattered Clouds
8:51 PM 21.0 °F - 15.1 °F 78% 30.45 in 10.0 mi Calm Calm - N/A   Overcast
10:51 PM 23.0 °F - 15.1 °F 72% 30.42 in 10.0 mi Calm Calm - N/A   Overcast
11:51 PM 23.0 °F 18.4 °F 16.0 °F 74% 30.40 in 10.0 mi SW 3.5 mph - N/A   Overcast